Total_Precipitation_Accumulation
2.65 2.92 3.06 3.31 3.65 3.98 4.29 4.66 5.18 5.52 5.45 5.54 5.48 5.32 4.97 4.70 4.26 3.78 3.46 3.41 3.42 3.66 4.27 3.94 4.43 4.33 4.52 4.63 4.62 5.03 5.15 4.76 4.76 4.67 4.20 3.38 2.87 2.79 2.80 2.87 3.09 3.09 3.22
2.43 2.70 2.73 3.03 3.26 3.78 4.30 4.74 4.83 4.82 4.72 5.02 5.43 5.61 5.56 4.99 4.28 3.87 3.76 3.40 3.30 3.50 3.78 4.19 4.12 4.19 4.40 4.42 4.45 4.80 4.74 4.29 4.49 4.84 4.86 3.99 3.60 3.00 2.31 2.66 2.80 2.94 3.39
2.01 2.35 2.44 2.50 2.70 3.22 3.77 3.98 3.96 3.91 3.81 3.99 4.42 4.73 5.02 4.82 4.44 4.09 3.82 3.38 3.24 3.28 3.49 3.83 3.93 4.04 3.88 4.13 4.36 4.34 4.36 4.33 4.31 4.44 4.95 4.52 4.02 3.32 2.62 2.44 2.55 2.97 3.36
1.90 2.08 2.18 2.25 2.25 2.46 2.72 2.86 3.08 3.26 3.32 3.37 3.59 3.89 4.19 4.24 4.24 4.15 3.79 3.39 3.07 3.06 3.25 3.42 3.48 3.57 3.53 3.86 3.56 3.70 4.08 4.37 4.26 4.18 4.06 4.10 4.24 4.07 3.30 2.73 2.57 2.86 3.04
1.65 1.79 1.92 1.98 2.06 2.23 2.44 2.57 2.90 3.11 3.22 3.21 3.28 3.52 3.87 3.92 3.76 3.63 3.72 3.48 3.18 2.92 2.86 3.09 3.23 3.25 3.19 3.32 3.38 3.78 3.74 3.93 4.00 4.04 4.00 4.09 4.13 3.90 3.68 3.24 3.04 2.94 2.63
1.47 1.72 1.84 1.89 1.98 2.03 2.21 2.44 2.71 2.75 2.85 2.91 2.91 2.98 3.21 3.41 3.31 3.24 3.24 3.11 2.98 2.88 2.78 2.84 3.05 2.98 2.97 3.12 3.28 3.43 3.45 3.59 3.71 3.71 3.80 4.14 4.03 3.92 3.95 3.44 3.20 3.05 2.68
1.35 1.57 1.73 1.69 1.80 1.89 2.02 2.19 2.32 2.45 2.48 2.51 2.46 2.43 2.55 2.75 2.80 2.72 2.78 2.72 2.50 2.42 2.58 2.72 2.84 2.80 2.83 2.89 3.11 3.23 3.33 3.51 3.57 3.48 3.52 3.67 3.69 3.85 3.99 3.96 3.46 3.15 2.72
1.02 1.15 1.32 1.43 1.57 1.71 1.80 1.92 2.04 2.22 2.31 2.34 2.37 2.36 2.36 2.45 2.55 2.67 2.53 2.49 2.24 2.12 2.24 2.38 2.41 2.51 2.65 2.68 3.15 3.18 3.29 3.43 3.36 3.20 3.68 3.52 3.20 3.49 3.75 4.04 4.20 3.75 3.18
1.01 1.02 1.14 1.23 1.30 1.39 1.50 1.63 1.79 2.00 2.18 2.16 2.32 2.31 2.20 2.30 2.48 2.62 2.54 2.44 2.43 2.30 2.36 2.37 2.39 2.51 2.75 2.98 3.27 3.25 3.29 3.45 3.32 3.33 3.56 3.39 3.10 3.17 3.27 3.81 4.25 4.36 3.82
0.93 0.96 1.01 1.01 1.01 1.15 1.50 1.68 1.82 1.97 2.06 2.03 1.96 1.86 1.95 2.15 2.36 2.38 2.36 2.53 2.58 2.56 2.57 2.57 2.59 2.56 2.70 2.94 3.17 3.15 3.20 3.34 3.34 3.38 3.55 3.50 3.20 3.24 3.27 3.66 4.11 4.31 4.36
1.02 1.07 1.16 1.12 1.11 1.20 1.47 1.50 1.56 1.78 1.89 1.88 1.75 1.73 1.82 1.94 2.08 2.12 2.13 2.35 2.43 2.47 2.38 2.32 2.37 2.42 2.58 2.83 2.91 2.78 2.85 2.87 3.03 2.96 3.10 3.26 3.47 3.45 3.45 3.68 3.90 4.11 4.37
1.01 1.06 1.11 1.24 1.41 1.53 1.51 1.39 1.40 1.45 1.57 1.60 1.59 1.65 1.71 1.71 1.73 1.81 1.94 2.05 2.09 2.10 1.99 2.04 2.13 2.17 2.31 2.48 2.43 2.37 2.48 2.60 2.80 2.97 3.12 2.98 3.19 3.32 3.34 3.51 3.69 3.93 4.22
1.02 1.08 1.17 1.22 1.29 1.45 1.62 1.47 1.42 1.49 1.55 1.59 1.67 1.81 1.87 1.79 1.75 1.80 1.87 1.86 1.78 1.80 1.78 1.87 1.97 2.06 2.18 2.16 2.09 2.17 2.23 2.36 2.57 2.76 2.77 2.69 2.93 2.92 3.08 3.19 3.31 3.56 3.84
0.92 0.95 1.12 1.31 1.36 1.36 1.48 1.38 1.29 1.39 1.52 1.75 1.99 2.08 2.07 2.01 1.93 1.84 1.82 1.78 1.70 1.80 1.82 1.92 2.03 2.00 1.98 1.96 2.08 2.20 2.27 2.34 2.35 2.34 2.33 2.34 2.47 2.65 2.99 3.06 3.13 3.28 3.54
0.99 0.93 1.05 1.26 1.36 1.40 1.40 1.32 1.32 1.34 1.51 1.79 1.97 2.09 2.18 2.15 2.09 1.96 1.83 1.79 1.79 1.75 1.84 2.01 2.05 2.03 1.94 1.79 2.03 2.21 2.16 2.23 2.22 2.13 2.00 1.93 2.05 2.24 2.48 2.37 2.66 2.93 3.10
1.08 1.01 1.02 1.09 1.23 1.32 1.37 1.38 1.45 1.51 1.58 1.62 1.69 1.86 2.01 2.04 2.00 1.83 1.74 1.79 1.81 1.86 1.90 1.88 1.92 1.83 1.52 1.67 1.91 2.04 2.07 2.20 2.24 2.13 2.00 1.86 1.84 1.91 1.99 2.01 2.10 2.36 2.59
1.03 0.97 0.99 1.02 1.10 1.13 1.22 1.48 1.52 1.50 1.54 1.62 1.71 1.90 1.97 1.95 1.90 1.77 1.77 1.81 1.82 1.88 1.87 1.78 1.80 1.77 1.71 1.81 1.84 1.85 1.95 2.15 2.20 2.23 2.21 1.86 1.55 1.75 1.73 1.83 1.84 1.89 2.05
0.89 0.90 0.96 1.02 1.04 1.02 1.03 1.18 1.36 1.48 1.55 1.60 1.68 1.80 1.87 1.99 2.09 2.03 1.91 1.91 1.91 1.84 1.86 1.83 1.85 1.94 1.90 1.93 1.78 1.80 1.78 1.92 2.03 2.08 2.06 2.01 1.91 1.83 1.82 1.82 1.76 1.60 1.68
0.84 0.93 1.04 1.01 1.01 1.01 1.04 1.16 1.31 1.46 1.62 1.69 1.74 1.77 1.91 2.10 2.11 1.98 1.96 2.01 1.97 1.82 1.78 1.79 1.81 1.85 1.96 2.05 1.93 1.88 1.79 1.90 1.92 1.89 1.82 1.78 1.79 1.87 1.73 1.78 1.77 1.65 1.59
0.91 0.87 0.87 0.90 0.97 1.08 1.16 1.23 1.41 1.63 1.76 1.78 1.87 1.95 2.02 2.16 2.31 2.35 2.30 2.20 2.15 2.06 2.00 1.92 1.91 1.89 1.95 1.96 1.75 1.70 1.60 1.71 1.75 1.80 1.65 1.55 1.50 1.57 1.56 1.66 1.80 1.68 1.61
0.96 0.98 1.02 1.03 1.08 1.12 1.29 1.51 1.64 1.73 1.81 1.89 1.97 2.17 2.28 2.42 2.57 2.77 2.66 2.58 2.49 2.46 2.38 2.26 2.15 2.11 2.12 2.03 1.71 1.58 1.49 1.65 1.78 1.72 1.55 1.46 1.43 1.37 1.35 1.41 1.54 1.63 1.75
1.01 1.11 1.24 1.28 1.22 1.21 1.34 1.54 1.70 1.79 1.97 2.00 2.08 2.17 2.32 2.40 2.56 2.96 2.96 2.99 3.00 2.80 2.66 2.52 2.39 2.31 2.28 2.06 1.77 1.66 1.68 1.74 1.82 1.80 1.71 1.64 1.51 1.35 1.30 1.26 1.34 1.50 1.55
1.09 1.15 1.28 1.36 1.40 1.48 1.64 1.81 1.87 1.96 2.06 2.20 2.36 2.46 2.54 2.71 2.83 3.00 3.05 3.07 3.02 2.85 2.68 2.53 2.33 2.30 2.27 2.17 1.88 1.71 1.71 1.78 1.79 1.83 1.85 1.73 1.58 1.48 1.44 1.47 1.54 1.53 1.52
1.12 1.24 1.36 1.57 1.71 1.77 1.90 2.05 2.16 2.27 2.41 2.57 2.67 2.70 2.74 2.77 2.83 2.99 2.99 2.98 2.92 2.78 2.68 2.60 2.42 2.39 2.46 2.35 2.19 2.02 1.94 1.97 1.91 1.86 1.85 1.74 1.62 1.52 1.49 1.49 1.47 1.46 1.57
1.24 1.33 1.53 1.73 1.79 1.91 2.02 2.15 2.38 2.60 2.69 2.71 2.70 2.65 2.67 2.78 2.86 2.84 2.81 2.87 2.90 2.90 2.88 2.80 2.79 2.74 2.69 2.57 2.48 2.35 2.27 2.31 2.34 2.28 2.16 2.05 1.90 1.73 1.67 1.64 1.64 1.70 1.78
1.36 1.50 1.67 1.84 1.93 2.08 2.21 2.33 2.55 2.85 3.04 2.94 2.86 2.84 2.86 2.87 2.83 2.80 2.75 2.79 2.71 2.67 2.63 2.66 2.73 2.65 2.68 2.67 2.44 2.33 2.30 2.36 2.41 2.28 2.16 2.23 2.20 2.09 2.04 1.97 1.93 1.93 1.91